カタログに戻る

STARLINK-11299

運用中通信VLEO
NORAD 61058·PAYLOAD·🇺🇸 United States

打ち上げ Sep 13, 2024 から Vandenberg Space Force Base

Loading…

次のパス (今後24時間)

TLE

最新Source: CelesTrak SupGP

元期: Sep 15, 2026, 03:32 UTC

1 61058C 24164J   26258.14770833 -.00006746  00000+0 -55537-4 0  2584
2 61058  53.1568  97.6084 0001157  80.1249 197.6897 15.69726380    17

AllMySatでSTARLINK-11299をリアルタイム追跡

Download on the App Store